Location: Piotrkow Trybunalski
(51.4000°N, 19.6830°E)
Time: 20:57:28
(UTC+02:00)

Explorer 7 - Pass Details

Date: 18 September 2024
Orbit: 460 x 606 km, 50.3° (Epoch: 12 October)

Event Time Altitude Azimuth Distance (km) Brightness Sun altitude
Exits shadow 03:33:55 33° 100° (E) 809 7.9 -24.8°
Drops below altitude 10° 03:36:05 10° 86° (E) 1,615 9.9 -24.6°
Sets 03:38:13 0° 83° (E) 2,484 11.1 -24.3°
